www.pogodaiklimat.ru

Погода и климат >> Архив погоды >> Россия >> Хабаровский край >> Хабаровск


АРХИВ ПОГОДЫ в Хабаровске

Время (UTC), дата Ветер
(напр.,м/с)
 
Видим.   Явления Облачность Т
(С)
Тd
(С)
f
(%)
Тe
(С)
Тes
(С)
Комфортность P
(гПа)
Po
(гПа)
Тmin
(С)
Tmax
(С)
R
(мм)
R24
(мм)
S
(см)
09 18.06 З 7
{11}
10 км 6/3 1000 м
[Cu med, cong Ci fib]
+21.6 +7.5 40 +23 +23 комфорт 1002.5 994.4 +22.8
12 18.06 ЮЗ 5
{11}
10 км 9/0
[Ac trans Ci fib]
+16.7 +10.5 67 +16 +16 по сезону 1002.9 994.7
15 18.06 З 6 10 км 5/0
[Ci fib]
+15.7 +11.6 77 +14 +14 по сезону 1002.3 994.3
18 18.06 ЮЗ 3 10 км 3/0
[Ci fib]
+13.7 +11.0 84 +13 +13 по сезону 1001.9 993.6
21 18.06 ЮВ 2 10 км 6/0
[Ac trans Ci fib]
+13.2 +11.9 92 +12 +14 прохладно 1002.2 993.9 +10.9
00 19.06 Ю 4 10 км 9/0
[Ac trans Ci fib]
+19.5 +11.4 59 +21 +26 комфорт 1001.6 993.5
03 19.06 Ю 3 10 км 9/3 1000 м
[Sc Ac trans]
+20.2 +11.5 57 +22 +27 комфорт 1001.5 993.6
06 19.06 С 1 10 км 9/3 1000 м
[Cb cap Ac trans]
+20.6 +12.4 59 +24 +29 комфорт 1001.2 993.2
09 19.06 СВ 2 10 км 9/0
[Ac trans]
+18.8 +13.7 72 +20 +21 по сезону 1001.1 993.2 +22.0
12 19.06 СВ 4 10 км 9/0
[Ac trans]
+15.6 +13.1 85 +15 +15 прохладно 1003.1 994.9
15 19.06 СВ 5 10 км 10/3 1500 м
[Cb cap Ac trans Cs]
+13.7 +11.3 85 +12 +12 прохладно 1003.4 995.3
18 19.06 СВ 4 10 км 8/3 1000 м
[Cb cap Ac trans Ci fib]
+11.1 +9.6 90 +9 +9 холодно 1003.5 995.2
21 19.06 СВ 5 10 км 9/0
[Ci fib]
+12.6 +9.8 83 +10 +11 холодно 1004.4 996.1 +10.8
00 20.06 СВ 6 10 км 9/3 1000 м
[Sc Ac trans Ci fib]
+17.4 +11.7 69 +17 +19 прохладно 1005.2 997.0
03 20.06 СВ 4 10 км 9/0
[Ac trans Ci fib]
+21.1 +11.4 54 +23 +30 комфорт 1005.2 997.3
06 20.06 С 6 10 км 9/0
[Ac trans Ci fib]
+22.1 +12.0 53 +24 +27 комфорт 1004.8 996.8
09 20.06 СВ 6
{10}
10 км 9/3 1000 м
[Cb cap Ac trans Ci fib]
+21.4 +12.0 55 +24 +24 комфорт 1005.2 997.3 +22.9
12 20.06 В 5
{10}
10 км 8/3 1000 м
[Cb cap Ac trans]
+18.1 +10.7 62 +18 +18 по сезону 1007.9 999.7
15 20.06 СВ 5 10 км 4/0
[Ac trans]
+14.9 +10.4 74 +13 +13 прохладно 1008.1 1000.0
18 20.06 С 3 10 км 4/0
[Ac trans]
+12.7 +10.3 85 +11 +11 прохладно 1008.9 1000.5
21 20.06 СВ 4 10 км 3/0
[Ac trans]
+13.8 +12.0 89 +12 +13 холодно 1009.7 1001.4 +11.5
00 21.06 СВ 2 10 км ясно +19.3 +12.6 65 +21 +33 комфорт 1009.9 1001.7
03 21.06 С 3 10 км 4/4 1000 м
[Cu hum]
+22.2 +11.6 51 +24 +34 комфорт 1009.1 1001.1
06 21.06 СВ 2 10 км 1/1 1000 м
[Cu hum]
+24.1 +11.3 45 +26 +36 жарко 1007.8 999.7
09 21.06 СВ 3 10 км 3/3 1000 м
[Cu hum]
+23.8 +12.0 48 +26 +27 жарко 1007.7 999.7 +24.9
12 21.06 Ю 2 10 км 5/3 1000 м
[Cb cap Ac trans]
+18.6 +12.2 66 +20 +20 тепло 1009.3 1001.1
15 21.06 С 2 10 км 4/0
[Ac trans]
+15.4 +12.6 83 +15 +15 по сезону 1009.5 1001.3
18 21.06 ЮВ 1 10 км местами туман поземный 3/0
[Ac trans]
+12.7 +12.4 98 +13 +13 по сезону 1009.7 1001.3
21 21.06 В 2 10 км 1/0
[Ci fib]
+15.8 +12.5 81 +16 +18 по сезону 1010.3 1002.0 +12.4
00 22.06 В 3 10 км 6/0
[Ci fib]
+20.8 +11.6 56 +23 +32 комфорт 1010.1 1002.0
03 22.06 СВ 4 10 км 9/4 1200 м
[Cu med, cong Ci fib]
+23.4 +12.6 51 +26 +33 жарко 1009.6 1001.6
06 22.06 СВ 4 10 км 9/3 1000 м
[Cu med, cong Ci fib]
+26.0 +10.9 39 +27 +32 жарко 1007.9 999.9
09 22.06 СВ 3 10 км 6/3 1000 м
[Cb cap Ci fib]
+25.2 +12.4 45 +27 +28 жарко 1007.8 999.8 +26.2
12 22.06 штиль 0 10 км 6/3 1000 м
[Sc Ac trans]
+19.2 +15.7 80 +21 +21 комфорт 1009.2 1001.0
15 22.06 штиль 0 10 км 4/0
[Ci fib]
+16.6 +15.3 92 +16 +16 по сезону 1009.6 1001.4
18 22.06 ЮВ 1 1200 м дымка {туман} 6/0
[Ci fib]
+14.2 +14.0 99 +14 +14 по сезону 1009.5 1001.2
21 22.06 штиль 0 10 км {туман} 5/0
[Ac trans Ci fib]
+16.1 +15.4 96 +16 +18 по сезону 1010.1 1001.9 +13.1
00 23.06 СВ 1 10 км {туман} 4/0
[Ac trans]
+23.3 +15.2 60 +27 +38 душно 1010.1 1002.1
03 23.06 С 2 10 км 8/3 1000 м
[Cu hum Ci fib]
+25.6 +14.6 51 +28 +39 жарко 1009.5 1001.5
06 23.06 СВ 3 10 км 8/4 1470 м
[Cu hum Ac trans]
+26.5 +14.7 48 +29 +33 жарко 1007.9 1000.2
09 23.06 СЗ 3 10 км 9/0
[Ac trans Ci fib]
+24.2 +14.9 56 +27 +28 жарко 1008.3 1000.3 +27.0
12 23.06 СВ 2 10 км 9/0
[Ac trans Ci fib]
+20.5 +16.6 78 +24 +24 комфорт 1009.4 1001.5
15 23.06 С 1 10 км 9/0
[Ac trans Ci fib]
+17.9 +16.8 93 +19 +19 тепло 1009.5 1001.3
18 23.06 СВ 3 10 км 9/0
[Ac trans Ci fib]
+16.9 +16.2 96 +17 +17 тепло 1009.7 1001.7
21 23.06 В 1 10 км 6/0
[Ac trans Ci fib]
+17.2 +16.5 96 +18 +20 по сезону 1010.3 1002.3 +15.7
00 24.06 Ю 2 10 км 8/0
[Ac trans Ci fib]
+23.6 +17.3 68 +27 +35 жарко 1010.4 1002.4
03 24.06 ЮЗ 3 10 км 3/3 1000 м
[Cu med, cong]
+27.3 +14.2 45 +30 +40 душно 1009.6 1001.6
06 24.06 ЮЗ 3 10 км 4/4 1000 м
[Cb calv]
+28.4 +15.5 45 +31 +37 душно 1007.9 1000.0
09 24.06 З 6 10 км 4/0
[Ci fib]
+27.3 +14.3 45 +30 +30 душно 1007.6 999.7 +29.0
12 24.06 Ю 3 10 км 8/0
[Ac trans Ci fib]
+22.6 +14.4 60 +26 +26 жарко 1008.0 999.9
15 24.06 Ю 2 10 км 5/0
[Ac trans]
+20.9 +16.5 76 +25 +25 комфорт 1007.6 999.5
18 24.06 ЮЗ 4 10 км 9/0
[Ac trans]
+22.1 +14.7 63 +25 +25 комфорт 1006.7 998.7
21 24.06 Ю 4 10 км 9/0
[Ac trans]
+20.7 +15.1 70 +24 +24 комфорт 1006.5 998.4 +20.5
00 25.06 З 5
{12}
10 км гроза, ливневой дождь 10/6 1200 м
[Cb cap Ac trans]
+22.0 +16.7 72 +26 +27 душно 1006.9 998.9
03 25.06 ЮЗ 7 10 км {гроза, ливн. осадки} 9/3 870 м
[Sc Ac trans Ci fib]
+25.1 +17.8 64 +29 +31 душно 1005.9 998.0
06 25.06 ЮЗ 6
{13}
10 км {гроза, ливн. осадки} 9/0
[Ac trans]
+23.9 +18.5 72 +28 +31 душно 1005.2 997.2

 

Местоположение метеостанции Хабаровск (Хабаровский край, Россия): широта 48.52 долгота 135.10 высота над уровнем моря 76 м.

В архиве по умолчанию представлена погода в Хабаровске за последнюю неделю. Архивные данные за месяц целиком и за предыдущие месяцы, начиная с января 2011 года, Вы можете получить, выбрав интересующий диапазон дат из раскрывающегося списка и нажав кнопку "Ввод!".


*Определитесь, кто Вы:
робот инопланетянин человек

Внимание! Время в таблицах - всемирное. Для получения местного времени необходимо прибавить поправку, которая равна 10 ч.

Смотрите также архив погоды в соседних городах и на ближайших метеорологических станциях:

Погода в Хабаровске Агромет (Хабаровский край, Россия) (1 км)
Погода в Хабаровске АМС (Хабаровский край, Россия) (6 км)
Погода на Хабаровск Мосту (Хабаровский край, Россия) (6 км)
Погода в Хабаровске Аэр. Большой (Хабаровский край, Россия) (8 км)
Погода в Хабаровске 21 км (Хабаровский край, Россия) (19 км)
Погода в Князе-Волконском (Хабаровский край, Россия) (28 км)
Погода в Бычихе (Хабаровский край, Россия) (32 км)
Погода в Елабуге (Хабаровский край, Россия) (61 км)
Погода в Оборе (Хабаровский край, Россия) (62 км)
Погода в Георгиевке (Хабаровский край, Россия) (64 км)

Пояснения к столбцам:

Ветер - указаны скорость ветра в м/с - средняя за 10 мин, порывы в срок и между сроками (в фигурных скобках) и направление, откуда дует ветер: С - северный, СВ - северо-восточный, В - восточный, ЮВ - юго-восточный, Ю - южный, ЮЗ - юго-западный, З - западный, СЗ - северо-западный.
Видимость - горизонтальная дальность видимости в метрах или километрах. При видимости от 1 до 10 км при отсутствии осадков обычно наблюдается дымка, при ухудшении видимости до 1 км и менее - туман. В сухую погоду видимость может ухудшаться дымом, пылью или мглою.
Явления - указаны атмосферные явления, наблюдавшиеся в срок или в последний час перед сроком; фигурными скобками обозначены явления, наблюдавшиеся между сроками (за 1-3 часа до срока); квадратными скобками обозначены град или гололедные отложения с указанием их диаметра в мм.
Облачность - указаны через наклонную черту общая и нижняя облачность в баллах и высота нижней границы облаков в метрах; квадратными скобками обозначены формы облаков: Ci - перистые, Cs - перисто-слоистые, Cc - перисто-кучевые, Ac - высококучевые, As - высокослоистые, Sc - слоисто-кучевые, Ns - слоисто-дождевые, Cu - кучевые, Cb - кучево-дождевые. Подробнее классификацию облаков см. в Атласе облаков (PDF).
T - Температура воздуха - температура, измеренная на высоте 2 м над землей.
Td - Температура точки росы - температура, при понижении до которой содержащийся в воздухе водяной пар достигнет насыщения.
f - Относительная влажность воздуха - влажноcть воздуха, измеренная на высоте 2 м над землей.
Te - Эффективная температура - температура, которую ощущает одетый по сезону человек в тени. Характеристика душности погоды. При расчете учитывается влияние влажности воздуха и скорости ветра на теплоощущения человека.
Tes - Эффективная температура на солнце - температура, которую ощущает человек, с поправкой на солнечный нагрев. Характеристика знойности погоды. Зависит от высоты солнца над горизонтом, облачности и скорости ветра. Ночью, в пасмурную погоду, а также при ветре 12 м/с и более поправка равна нулю.
P - Атмосферное давление - приведенное к уровню моря атмосферное давление.
Po - Атмосферное давление - измеренное на уровне метеостанции атмосферное давление.
Tmin - Минимальная температура - минимум температуры воздуха на высоте 2 м над землей.
Tmax - Максимальная температура - максимум температуры воздуха на высоте 2 м над землей.
R - Количество осадков - Количество выпавших осадков за период времени, мм. При наведении курсора мыши на число - период времени, за который выпало указанное количество осадков.
R24 - Количество осадков - Количество выпавших осадков за 24 часа, мм.
S - Снежный покров - Высота снежного покрова, см. При наведении курсора мыши на число - состояние снежного покрова и степень покрытия местности в баллах.